This is the latest recevied weather packets stored in our database for station/object HB9FHL-13. If no packets are shown the sender has not sent any weather packets the latest 10 day(s).
| Time | Temp. | Humidity | Pressure | Rain* | Wind** | Luminosity | Snow |
|---|---|---|---|---|---|---|---|
| 1777768933 | 17.78° C | - | 1017.3 hPa | 0 mm | - | - | - |
| 1777768632 | 17.22° C | - | 1021.6 hPa | 0 mm | - | - | - |
| 1777768332 | 16.67° C | - | 1019.6 hPa | 0 mm | - | - | - |
| 1777767731 | 16.67° C | - | 1017.5 hPa | 0 mm | - | - | - |
| 1777767430 | 16.67° C | - | 1014.9 hPa | 0 mm | - | - | - |
| 1777767130 | 17.22° C | - | 1021.5 hPa | 0 mm | - | - | - |
| 1777766829 | 17.22° C | - | 1017.7 hPa | 0 mm | - | - | - |
| 1777766529 | 18.33° C | - | 1016.5 hPa | 0 mm | - | - | - |
| 1777766228 | 17.22° C | - | 1019.7 hPa | 0 mm | - | - | - |
| 1777765928 | 17.22° C | - | 1019.3 hPa | 0 mm | - | - | - |
| 1777765627 | 17.22° C | - | 1016.9 hPa | 0 mm | - | - | - |
| 1777765327 | 18.33° C | - | 1019.3 hPa | 0 mm | - | - | - |
| 1777765026 | 18.33° C | - | 1017.5 hPa | 0 mm | - | - | - |
| 1777764726 | 17.78° C | - | 1018.5 hPa | 0 mm | - | - | - |
| 1777764425 | 18.33° C | - | 1021.2 hPa | 0 mm | - | - | - |
| 1777764125 | 17.78° C | - | 1018.7 hPa | 0 mm | - | - | - |
| 1777763824 | 18.33° C | - | 1017.3 hPa | 0 mm | - | - | - |
| 1777763524 | 18.33° C | - | 1019.3 hPa | 0 mm | - | - | - |
| 1777763223 | 18.33° C | - | 1015.9 hPa | 0 mm | - | - | - |
| 1777762923 | 18.33° C | - | 1014.7 hPa | 0 mm | - | - | - |
| 1777762622 | 18.33° C | - | 1013.6 hPa | 0 mm | - | - | - |
| 1777762321 | 19.44° C | - | 1016.9 hPa | 0 mm | - | - | - |
| 1777762020 | 18.33° C | - | 1018.9 hPa | 0 mm | - | - | - |
| 1777761720 | 20° C | - | 1021.6 hPa | 0 mm | - | - | - |
| 1777761419 | 19.44° C | - | 1019.4 hPa | 0 mm | - | - | - |
* Rain since midnight (hover to see other rain measurements)
** Current wind speed in m/s (hover to see current wind gust speed)